FW3611 Weather Reports


Display with metric or nautical units.
time (UTC)temp
F
wind
direction
speed
MPH
gust
MPH
rain 1hr
in
rain 24hr
in
rain mn
in
humidity
%
barometer
mb
20260504032601 58 156 0.0 0.0 0.00 0.00 0.00 81 1019.4
20260504032102 58 156 0.0 0.0 0.00 0.00 0.00 81 1019.2
20260504031102 59 156 0.0 0.0 0.00 0.00 0.00 80 1019.2
20260504030601 59 156 0.0 0.0 0.00 0.00 0.00 80 1019.2
20260504030109 59 156 0.0 1.0 0.00 0.00 0.00 79 1019.2
20260504025606 59 156 0.0 1.0 0.00 0.00 0.00 79 1019.1
20260504025106 59 156 0.0 1.0 0.00 0.00 0.00 79 1019.1
20260504024603 59 156 0.0 1.0 0.00 0.00 0.00 79 1019.0
20260504024104 59 156 0.0 1.0 0.00 0.00 0.00 79 1019.0
20260504023102 59 156 0.0 1.0 0.00 0.00 0.00 79 1018.9
20260504022101 60 156 0.0 5.0 0.00 0.00 0.00 78 1018.8
20260504021603 60 156 0.0 1.0 0.00 0.00 0.00 78 1018.8
20260504020603 60 156 1.0 7.0 0.00 0.00 0.00 77 1018.6
20260504020113 59 160 1.0 7.0 0.00 0.00 0.00 78 1018.5
20260504015603 59 220 0.0 0.0 0.00 0.00 0.00 78 1018.4
20260504015101 60 220 0.0 0.0 0.00 0.00 0.00 77 1018.3
20260504014603 60 220 0.0 0.0 0.00 0.00 0.00 76 1018.2
20260504013601 60 220 0.0 0.0 0.00 0.00 0.00 75 1018.1
20260504013101 61 220 0.0 0.0 0.00 0.00 0.00 74 1018.1
20260504012101 61 220 0.0 0.0 0.00 0.00 0.00 72 1018.0
20260504011602 62 220 0.0 0.0 0.00 0.00 0.00 72 1018.0
20260504011101 62 220 0.0 0.0 0.00 0.00 0.00 71 1017.9
20260504010607 62 220 0.0 0.0 0.00 0.00 0.00 70 1017.9
20260504010110 63 220 0.0 0.0 0.00 0.00 0.00 70 1017.8
20260504005101 64 220 0.0 0.0 0.00 0.00 0.00 66 1017.7
20260504004601 64 220 0.0 0.0 0.00 0.00 0.00 66 1017.7
20260504004104 65 220 0.0 0.0 0.00 0.00 0.00 65 1017.6
20260504003602 66 220 0.0 0.0 0.00 0.00 0.00 64 1017.5
20260504003058 66 220 0.0 0.0 0.00 0.00 0.00 62 1017.5
20260504002556 67 220 0.0 0.0 0.00 0.00 0.00 59 1017.5
20260504002057 67 220 0.0 0.0 0.00 0.00 0.00 57 1017.5
20260504001555 68 220 0.0 0.0 0.00 0.00 0.00 55 1017.5
20260504001052 69 220 0.0 0.0 0.00 0.00 0.00 54 1017.5
20260504000554 69 220 0.0 0.0 0.00 0.00 0.00 53 1017.5
20260504000050 70 220 0.0 1.0 0.00 0.00 0.00 51 1017.5
20260503235549 71 220 0.0 1.0 0.00 0.00 0.00 46 1017.4
20260503235052 72 220 0.0 1.0 0.00 0.00 0.00 44 1017.3
20260503234546 72 220 1.0 4.0 0.00 0.00 0.00 43 1017.3
20260503233550 73 220 1.0 4.0 0.00 0.00 0.00 42 1017.3
20260503232544 74 223 1.0 3.0 0.00 0.00 0.00 36 1017.2
20260503232043 74 223 1.0 3.0 0.00 0.00 0.00 39 1017.2
20260503231543 74 223 2.0 4.0 0.00 0.00 0.00 38 1017.1
20260503231042 74 223 1.0 4.0 0.00 0.00 0.00 38 1017.2
20260503230539 74 223 1.0 3.0 0.00 0.00 0.00 37 1017.2
20260503230039 74 223 1.0 3.0 0.00 0.00 0.00 38 1017.4
20260503225541 75 226 1.0 3.0 0.00 0.00 0.00 38 1017.4
20260503225037 74 227 1.0 3.0 0.00 0.00 0.00 37 1017.3
20260503224531 74 227 1.0 4.0 0.00 0.00 0.00 37 1017.3
20260503224030 74 227 2.0 5.0 0.00 0.00 0.00 37 1017.3
20260503223529 75 295 2.0 5.0 0.00 0.00 0.00 37 1017.4
20260503223033 75 291 1.0 4.0 0.00 0.00 0.00 36 1017.4
20260503222534 75 291 1.0 4.0 0.00 0.00 0.00 36 1017.4
20260503222043 74 291 3.0 6.0 0.00 0.00 0.00 36 1017.4
20260503221537 74 304 3.0 7.0 0.00 0.00 0.00 36 1017.4
20260503221032 74 221 4.0 8.0 0.00 0.00 0.00 37 1017.5
20260503220537 74 255 3.0 8.0 0.00 0.00 0.00 37 1017.5
20260503220032 74 264 2.0 7.0 0.00 0.00 0.00 37 1017.4
20260503215524 75 308 2.0 5.0 0.00 0.00 0.00 37 1017.6
20260503215022 74 308 3.0 8.0 0.00 0.00 0.00 36 1017.5
20260503214523 74 310 3.0 8.0 0.00 0.00 0.00 36 1017.5
20260503212513 74 206 2.0 6.0 0.00 0.00 0.00 38 1017.6
20260503212011 73 190 4.0 8.0 0.00 0.00 0.00 38 1017.6
20260503211007 74 342 4.0 9.0 0.00 0.00 0.00 39 1017.7
20260503210508 74 346 2.0 9.0 0.00 0.00 0.00 37 1017.7
20260503210006 74 287 1.0 9.0 0.00 0.00 0.00 37 1017.8
20260503205503 74 283 2.0 9.0 0.00 0.00 0.00 38 1017.9
20260503204505 73 264 6.0 13.0 0.00 0.00 0.00 38 1017.8
20260503204004 74 280 5.0 13.0 0.00 0.00 0.00 38 1017.8
20260503203505 73 341 4.0 9.0 0.00 0.00 0.00 36 1017.9
20260503202510 74 241 2.0 5.0 0.00 0.00 0.00 38 1017.9
20260503202005 74 232 2.0 5.0 0.00 0.00 0.00 36 1017.8
20260503201501 74 161 1.0 5.0 0.00 0.01 0.00 36 1017.9
20260503201002 74 162 1.0 5.0 0.00 0.01 0.00 41 1018.0
20260503200501 73 167 1.0 4.0 0.00 0.01 0.00 36 1018.0
20260503200001 73 237 3.0 8.0 0.00 0.01 0.00 37 1018.0
20260503195502 73 248 3.0 8.0 0.00 0.01 0.00 37 1018.2
20260503195001 73 250 3.0 6.0 0.00 0.01 0.00 37 1018.3
20260503194504 73 23 3.0 10.0 0.00 0.01 0.00 39 1018.4
20260503194001 73 242 5.0 13.0 0.00 0.01 0.00 38 1018.5
20260503193501 73 233 5.0 13.0 0.00 0.01 0.00 38 1018.5
20260503193005 72 324 4.0 9.0 0.00 0.01 0.00 37 1018.7
20260503192508 73 262 5.0 10.0 0.00 0.01 0.00 37 1018.9
20260503192009 73 268 5.0 13.0 0.00 0.01 0.00 39 1018.9
20260503191508 73 219 5.0 13.0 0.00 0.01 0.00 39 1019.0
20260503191006 73 191 4.0 9.0 0.00 0.01 0.00 37 1019.0
20260503190501 72 218 3.0 9.0 0.00 0.01 0.00 38 1019.1
20260503190003 73 168 3.0 7.0 0.00 0.01 0.00 41 1019.1
20260503185454 72 189 2.0 6.0 0.00 0.01 0.00 41 1019.2
20260503184950 73 200 2.0 9.0 0.00 0.01 0.00 42 1019.3
20260503184448 72 188 3.0 9.0 0.00 0.01 0.00 39 1019.4
20260503183943 71 198 5.0 9.0 0.00 0.01 0.00 39 1019.5
20260503183441 72 171 4.0 9.0 0.00 0.01 0.00 40 1019.6
20260503182444 72 310 2.0 5.0 0.00 0.01 0.00 40 1019.6
20260503181943 71 56 2.0 5.0 0.00 0.01 0.00 41 1019.6
20260503181440 71 217 3.0 9.0 0.00 0.01 0.00 42 1019.7
20260503180935 71 320 4.0 9.0 0.00 0.01 0.00 37 1019.8
20260503180434 71 250 5.0 11.0 0.00 0.01 0.00 38 1019.8
20260503175942 71 251 6.0 11.0 0.00 0.01 0.00 38 1019.8
20260503175442 71 257 5.0 11.0 0.00 0.01 0.00 43 1019.8
20260503174938 71 342 5.0 11.0 0.00 0.02 0.00 40 1019.9
20260503174437 71 310 3.0 10.0 0.00 0.03 0.00 41 1020.0
20260503173429 71 255 2.0 7.0 0.00 0.03 0.00 42 1020.1
20260503172929 71 210 3.0 8.0 0.00 0.03 0.00 44 1020.1
20260503172429 70 212 3.0 8.0 0.00 0.03 0.00 43 1020.3
20260503171928 71 235 4.0 10.0 0.00 0.03 0.00 41 1020.4
20260503171431 70 260 5.0 10.0 0.00 0.03 0.00 41 1020.5
20260503170929 70 280 4.0 10.0 0.00 0.04 0.00 39 1020.5
20260503150931 65 54 2.0 5.0 0.00 0.09 0.00 77 1020.8
20260503150433 64 40 2.0 5.0 0.00 0.09 0.00 76 1020.9
20260503131403 56 8 3.0 4.0 0.00 0.22 0.00 96 1020.6
20260503130911 56 351 2.0 4.0 0.00 0.22 0.00 96 1020.6
20260503130410 56 346 3.0 5.0 0.00 0.23 0.00 96 1020.7
20260503081254 55 31 0.0 0.0 0.00 1.29 0.00 96 1017.8
20260503080756 55 31 0.0 0.0 0.00 1.32 0.00 96 1017.8
20260503080252 55 31 0.0 0.0 0.00 1.34 0.00 96 1017.7
20260503072746 55 31 0.0 0.0 0.00 1.45 0.00 96 1017.4
20260503071744 55 31 0.0 0.0 0.00 1.47 0.00 96 1017.4
20260503071241 54 31 0.0 0.0 0.00 1.49 0.00 96 1017.3
20260503070738 54 31 0.0 0.0 0.00 1.49 0.00 96 1017.2
20260503070234 54 31 0.0 0.0 0.00 1.50 0.00 96 1017.2
20260503060201 53 31 0.0 0.0 0.00 1.64 0.00 95 1017.1
20260503035713 54 31 0.0 0.0 0.00 1.66 1.66 94 1016.4
20260503035203 55 31 0.0 0.0 0.00 1.66 1.66 95 1016.3
20260503034701 54 31 0.0 0.0 0.00 1.66 1.66 95 1016.1
20260503034202 55 31 0.0 0.0 0.00 1.66 1.66 95 1016.1
20260503033708 55 31 0.0 0.0 0.00 1.66 1.66 95 1016.0
20260503033202 55 31 0.0 0.0 0.00 1.66 1.66 95 1015.9